Weather in Stoginskoye

Russia / Yaroslavl Oblast     57°14′13″N   40°03′13″E
temp.,
°C
wind,
m/s
gust,
m/s
humid.,
%
clouds,
%
prec.,
mm/h
press.,
hPa
HPBL,
m
30 november, tue
tue3000:00+3e61397100 0.0 993522
03:00+3e71597100 0.1 985521
06:00+4e81894100 5.8 975896
09:00+8sse81587100 8.9 9691307
12:00+5ssw101885100 0.6 9711378
15:00+3s91673100 0.6 9721500
18:00+1s81480100 0.3 9711358
21:00−1ssw81592100 0.9 9701006
1 december, wed
wed100:00−1sw91586100 0.9 9741017
03:00−3sw81492100 1.4 9791063
06:00−3wsw81382100 1.3 982950
09:00−4wsw51093100 1.6 984884
12:00−4sw5993100 1.6 986806
15:00−5wsw5993100 2.8 987762
18:00−5wsw5994100 1.3 988730
21:00−6w51094100 2.9 990684
2 december, thu
thu200:00−6w61192100 1.1 992641
03:00−8w51190100 1.2 995554
06:00−9w4109397 0.1 997455
09:00−10sw389565 0.1 999247
12:00−7sw3587100 0.0 1000288
15:00−6s3786100 0.0 999364
18:00−5sse41194100 0.3 998499
21:00−5s4119495 0.8 997542
3 december, fri
fri300:00−4s41096100 0.7 996430
03:00−1ssw4129697 1.4 996565
06:00+1sw51296100 0.1 996750
09:000sw5129295 0.2 999659
12:000sw51182100 0.0 1001773
15:00−1sw3985100 0.0 1003358
18:00−2s2793100 0.0 1003239
21:00−1ese2498100 0.8 1001158
4 december, sat
sat400:00−1e3898100 3.7 998436
03:000sw2799100 6.3 996446
06:00−2w51196100 1.6 997636
09:00−4w6128989 1.8 1001679
12:00−6wsw5129099 0.0 1005699
15:00−7sw51188100 0.0 1008616
18:00−7sw5129192 0.0 1010537
21:00−7sw4119298 0.1 1011503